[[{"header":{"parameterUnit":"m.s-1","parameterCategory":1,"la1":30.2991,"la2":30.254,"lo1":-89.0895,"lo2":-89.0444,"dy":0.0017,"dx":0.0017,"nx":28,"ny":28,"refTime":"2023-03-13T21:00:00:Z","depth":0,"parameterNumber":2,"parameterNumberName":"U-component_of_WINDS"},"data":[0,0,0,0,0,0,0,0,0,0,0,0,0,0,0,0,0,0,0,0,0,0,0,0,0,0,0,0,0,0,0,0,0,0,0,0,0,0,0,0,0,0,0,0,0,0,0,0,0,0,0,0,0,0,0,0,0,0,0.7641,0.7641,0,0.7656,0.7656,0.7656,0.7672,0.7672,0.7672,0.7672,0.7687,0.7687,0.7687,0,0,0,0,0,0,0,0,0,0,0,0,0,0.7624,0.7625,0.7641,0.7641,0.7641,0.7656,0.7656,0.7656,0.7672,0.7672,0.7672,0.7672,0.7687,0.7687,0.7687,0,0,0,0,0,0,0,0,0,0,0,0,0,0.7635,0.7625,0.7641,0.765,0.7651,0.7656,0.7656,0.7657,0.7672,0.7672,0.7672,0.7672,0.7687,0.7687,0.7687,0.7683,0,0,0.7688,0.7688,0,0,0,0,0,0,0,0,0.7634,0.7635,0.7649,0.765,0.7651,0.7662,0.7656,0.7665,0.7671,0.7664,0.7672,0.7673,0.7678,0.7679,0.7682,0.7684,0.7685,0.7688,0.7689,0.7689,0.7689,0,0,0,0,0,0,0,0.7633,0.7635,0.7647,0.7649,0.765,0.7654,0.7656,0.7658,0.7669,0.7665,0.7666,0.7667,0.7679,0.7681,0.7682,0.7685,0.7688,0.7689,0.7689,0.7689,0.7686,0.7686,0,0,0,0,0,0,0.7631,0.7634,0.7646,0.7647,0.7643,0.7654,0.7656,0.7658,0.7669,0.7671,0.7667,0.7668,0.7681,0.7682,0.7683,0.7679,0.7689,0.7689,0.7689,0.7686,0.7686,0.7686,0,0,0,0,0,0,0.7631,0.7632,0.7646,0.7641,0.7643,0.7654,0.7656,0.7658,0.7661,0.7671,0.7673,0.7667,0.7681,0.7682,0.7683,0.768,0.7689,0.7689,0.7687,0.7686,0.7686,0.7672,0,0,0,0,0,0,0.763,0.7632,0.763,0.7641,0.7643,0.7646,0.7656,0.7658,0.7661,0.7663,0.7672,0.7674,0.7681,0.7683,0.7684,0.7681,0.769,0.7687,0.7686,0.7686,0.7673,0.7671,0.767,0,0,0,0,0,0.763,0.7625,0.763,0.7631,0.7641,0.7646,0.7647,0.7656,0.7661,0.766,0.7667,0.7673,0.768,0.7683,0.7684,0.7681,0.7687,0.7687,0.7686,0.7673,0.7671,0.767,0,0,0,0,0,0,0.7613,0.7627,0.7632,0.7631,0.7637,0.7648,0.7646,0.7653,0.7658,0.7659,0.767,0.7672,0.7672,0.7677,0.7679,0.7678,0.7685,0.7684,0.7675,0.7673,0.7672,0.767,0.769,0,0,0,0,0,0.761,0.7612,0.7624,0.7622,0.7624,0.7635,0.7637,0.7644,0.765,0.7653,0.766,0.7666,0.767,0.7672,0.7676,0.7674,0.7676,0.7672,0.7671,0.767,0.7669,0.767,0.7668,0.7684,0.7684,0.7684,0,0,0.7602,0.7609,0.761,0.7619,0.7624,0.7627,0.7637,0.7639,0.7641,0.7653,0.7655,0.766,0.7668,0.7668,0.7668,0.7672,0.7666,0.7669,0.7668,0.7668,0.7669,0.7667,0.7666,0.7683,0.7683,0.7683,0,0,0.7589,0.7595,0.7594,0.76,0.7609,0.7616,0.7616,0.7626,0.7631,0.7633,0.7642,0.7645,0.7651,0.7656,0.766,0.7651,0.7658,0.7652,0.7644,0.7644,0.7643,0.7642,0.7639,0.7638,0.7651,0.7651,0.7651,0,0.7578,0.7582,0.7593,0.7595,0.7598,0.7611,0.761,0.7615,0.7624,0.7627,0.7631,0.764,0.7645,0.7647,0.7645,0.7648,0.7648,0.765,0.7642,0.7641,0.764,0.7638,0.7637,0.765,0.7651,0.7651,0.7651,0,0.7569,0.7572,0.757,0.758,0.7583,0.7584,0.7595,0.7597,0.7604,0.7611,0.7614,0.7622,0.7628,0.7629,0.7635,0.7632,0.7634,0.764,0.7647,0.7638,0.7636,0.7635,0.7649,0.765,0.765,0.765,0,0,0.7544,0.7561,0.756,0.7565,0.7577,0.7579,0.7581,0.7588,0.759,0.7596,0.7598,0.7604,0.761,0.7614,0.7621,0.7621,0.7615,0.7627,0.7628,0.7625,0.7613,0.7608,0.7607,0.762,0.762,0.7619,0.7612,0,0.7533,0.7537,0.7548,0.7549,0.7552,0.7565,0.7566,0.7574,0.7581,0.7585,0.7592,0.7596,0.7604,0.7606,0.7607,0.7615,0.7612,0.7616,0.7622,0.7622,0.7619,0.7606,0.7601,0.7593,0.7612,0.7611,0.7611,0,0.7521,0.7527,0.7529,0.7541,0.7543,0.7544,0.7552,0.7556,0.7564,0.757,0.7575,0.7583,0.7587,0.7593,0.7598,0.76,0.7604,0.7608,0.7608,0.7609,0.7616,0.7606,0.7591,0.759,0.761,0.761,0.761,0,0.7503,0.7513,0.7515,0.7519,0.7533,0.7534,0.754,0.7549,0.7553,0.756,0.7563,0.757,0.7573,0.7579,0.7589,0.7593,0.7593,0.7601,0.7598,0.7597,0.7597,0.7596,0.7582,0.7599,0.7599,0.7599,0.7599,0,0.749,0.749,0.7508,0.7509,0.751,0.7523,0.7523,0.7531,0.7539,0.7542,0.7554,0.7556,0.757,0.7575,0.7583,0.7586,0.7588,0.7592,0.7594,0.7591,0.759,0.7593,0.7594,0.7599,0.7599,0.7599,0.7599,0,0.747,0.7482,0.7485,0.7499,0.7503,0.7503,0.7515,0.7517,0.7526,0.753,0.7531,0.7545,0.7551,0.7562,0.7571,0.7577,0.7578,0.7582,0.7575,0.7576,0.7573,0.7573,0.756,0.7559,0.7576,0.7576,0.7575,0,0.7461,0.7462,0.7476,0.7479,0.7485,0.749,0.7495,0.7508,0.7512,0.7523,0.7524,0.7531,0.7537,0.7547,0.7557,0.7564,0.7568,0.7563,0.7569,0.7567,0.7569,0.7569,0.7569,0.7562,0.7561,0.7561,0.7561,0,0.7443,0.7449,0.7455,0.7463,0.7469,0.7476,0.7483,0.7485,0.75,0.7504,0.7511,0.7516,0.7526,0.7534,0.7543,0.7549,0.7558,0.7559,0.7559,0.7555,0.7552,0.7554,0.7571,0.7559,0.7559,0.7559,0.756,0.756,0.7428,0.743,0.7441,0.7448,0.7455,0.7462,0.7465,0.7475,0.7481,0.749,0.7498,0.7504,0.7514,0.7528,0.7534,0.7539,0.7543,0.7543,0.7543,0.7542,0.7541,0.7551,0.7541,0.7541,0.7541,0.7541,0.7541,0,0.7411,0.7419,0.7425,0.7436,0.7442,0.745,0.746,0.7464,0.7469,0.7478,0.7485,0.7494,0.7501,0.7513,0.7521,0.7524,0.7528,0.7525,0.7525,0.7527,0.7537,0.7537,0.7522,0.7522,0.7522,0.7522,0.7522,0.7522,0.7403,0.7407,0.7414,0.7422,0.743,0.7437,0.7442,0.7449,0.7456,0.7466,0.7472,0.748,0.749,0.75,0.7508,0.7511,0.7514,0.751,0.7515,0.7524,0.7526,0.7527,0.7527,0.7511,0.7511,0.7504,0.7504,0.7504]},{"header":{"parameterUnit":"m.s-1","parameterCategory":1,"la1":30.2991,"la2":30.254,"lo1":-89.0895,"lo2":-89.0444,"dy":0.0017,"dx":0.0017,"nx":28,"ny":28,"refTime":"2023-03-13T21:00:00:Z","depth":0,"parameterNumber":3,"parameterNumberName":"V-component_of_WINDS"},"data":[0,0,0,0,0,0,0,0,0,0,0,0,0,0,0,0,0,0,0,0,0,0,0,0,0,0,0,0,0,0,0,0,0,0,0,0,0,0,0,0,0,0,0,0,0,0,0,0,0,0,0,0,0,0,0,0,0,0,-6.4607,-6.4608,0,-6.4693,-6.4694,-6.4695,-6.4669,-6.4667,-6.4666,-6.4664,-6.4746,-6.475,-6.4753,0,0,0,0,0,0,0,0,0,0,0,0,0,-6.4417,-6.442,-6.4607,-6.4608,-6.4609,-6.4693,-6.4694,-6.4695,-6.4669,-6.4667,-6.4665,-6.4663,-6.4745,-6.4749,-6.4754,0,0,0,0,0,0,0,0,0,0,0,0,0,-6.45,-6.4422,-6.4607,-6.4607,-6.4607,-6.4693,-6.4694,-6.4695,-6.467,-6.4667,-6.4665,-6.4662,-6.4743,-6.4749,-6.4754,-6.4843,0,0,-6.4772,-6.4774,0,0,0,0,0,0,0,0,-6.4496,-6.4507,-6.4606,-6.4607,-6.4608,-6.4668,-6.4657,-6.4745,-6.4671,-6.4646,-6.4664,-6.4661,-6.4722,-6.4729,-6.4751,-6.4847,-6.485,-6.4772,-6.4776,-6.4778,-6.478,0,0,0,0,0,0,0,-6.449,-6.4504,-6.4641,-6.4607,-6.4608,-6.4601,-6.461,-6.4673,-6.4697,-6.4648,-6.4646,-6.4657,-6.4722,-6.4745,-6.4752,-6.4852,-6.4772,-6.4777,-6.4781,-6.4783,-6.5027,-6.503,0,0,0,0,0,0,-6.4484,-6.4499,-6.4638,-6.4643,-6.4544,-6.4606,-6.4616,-6.4651,-6.4697,-6.4701,-6.4659,-6.4656,-6.4737,-6.4746,-6.4755,-6.4864,-6.4778,-6.4784,-6.4787,-6.5024,-6.5028,-6.5031,0,0,0,0,0,0,-6.448,-6.4497,-6.4635,-6.4571,-6.4588,-6.4613,-6.4652,-6.4654,-6.4678,-6.4705,-6.4709,-6.4679,-6.4735,-6.4747,-6.4822,-6.4866,-6.4786,-6.4792,-6.5021,-6.5025,-6.503,-6.5081,0,0,0,0,0,0,-6.4475,-6.4496,-6.453,-6.4572,-6.4591,-6.4702,-6.4654,-6.4658,-6.4688,-6.4684,-6.4725,-6.4729,-6.4734,-6.4814,-6.4828,-6.4873,-6.4796,-6.5017,-6.5023,-6.5028,-6.5075,-6.5087,-6.5096,0,0,0,0,0,-6.4468,-6.4539,-6.4532,-6.4549,-6.4636,-6.4704,-6.4715,-6.4721,-6.4692,-6.4727,-6.4745,-6.4728,-6.4859,-6.4822,-6.4838,-6.4885,-6.5014,-6.5021,-6.5028,-6.5071,-6.5084,-6.5096,0,0,0,0,0,0,-6.4499,-6.4545,-6.4537,-6.4624,-6.4661,-6.47,-6.4744,-6.4735,-6.4778,-6.4773,-6.4776,-6.4785,-6.4863,-6.4881,-6.4839,-6.4974,-6.4932,-6.4943,-6.4959,-6.4973,-6.4983,-6.4977,-6.4801,0,0,0,0,0,-6.4517,-6.457,-6.4606,-6.468,-6.4699,-6.4718,-6.4748,-6.475,-6.4787,-6.4802,-6.4825,-6.4861,-6.491,-6.4942,-6.4989,-6.5078,-6.5087,-6.5118,-6.5128,-6.5137,-6.5146,-6.5196,-6.5211,-6.5054,-6.5054,-6.5053,0,0,-6.4552,-6.4584,-6.4617,-6.4687,-6.4715,-6.477,-6.4731,-6.479,-6.483,-6.481,-6.4884,-6.4902,-6.4942,-6.5025,-6.5063,-6.5043,-6.5191,-6.5146,-6.5152,-6.5156,-6.5205,-6.5219,-6.5233,-6.5058,-6.5057,-6.5057,0,0,-6.4645,-6.4674,-6.474,-6.4771,-6.4816,-6.4829,-6.4844,-6.4886,-6.4898,-6.4973,-6.4959,-6.5006,-6.5091,-6.5121,-6.5147,-6.5255,-6.5241,-6.527,-6.5324,-6.5373,-6.5386,-6.5397,-6.5436,-6.545,-6.5278,-6.5279,-6.5279,0,-6.4683,-6.4767,-6.4774,-6.4836,-6.4867,-6.4854,-6.4921,-6.4949,-6.5006,-6.5028,-6.5005,-6.5113,-6.5138,-6.5229,-6.5256,-6.5277,-6.5295,-6.5265,-6.5384,-6.5395,-6.5405,-6.5443,-6.5458,-6.5282,-6.5281,-6.5281,-6.5281,0,-6.4812,-6.487,-6.4918,-6.4977,-6.5014,-6.5077,-6.5093,-6.5129,-6.5128,-6.5143,-6.522,-6.5251,-6.5305,-6.5326,-6.5324,-6.5418,-6.5404,-6.5383,-6.5341,-6.5423,-6.5459,-6.5473,-6.5287,-6.5285,-6.5284,-6.5284,0,0,-6.4925,-6.4991,-6.5008,-6.5036,-6.5086,-6.513,-6.5193,-6.5249,-6.528,-6.532,-6.5373,-6.5447,-6.5428,-6.5458,-6.5459,-6.5502,-6.5588,-6.5475,-6.5476,-6.5496,-6.5694,-6.5711,-6.5728,-6.5579,-6.5582,-6.5584,-6.5691,0,-6.5024,-6.5138,-6.5147,-6.5249,-6.5303,-6.5293,-6.5348,-6.5384,-6.5401,-6.5449,-6.5466,-6.5519,-6.5489,-6.5507,-6.5549,-6.5569,-6.5628,-6.5561,-6.5628,-6.563,-6.5619,-6.5746,-6.5763,-6.5863,-6.5705,-6.5708,-6.5709,0,-6.5153,-6.5202,-6.531,-6.5355,-6.5378,-6.5428,-6.5481,-6.5526,-6.5567,-6.5576,-6.5612,-6.5608,-6.5672,-6.5629,-6.5717,-6.5672,-6.57,-6.5714,-6.5718,-6.5724,-6.5675,-6.5757,-6.5895,-6.591,-6.5731,-6.5729,-6.5728,0,-6.5227,-6.5318,-6.5396,-6.5419,-6.5474,-6.5509,-6.5533,-6.5572,-6.5605,-6.5651,-6.5673,-6.5724,-6.5753,-6.5792,-6.5803,-6.577,-6.5892,-6.5848,-6.5901,-6.5901,-6.5927,-6.5925,-6.6072,-6.5944,-6.5944,-6.5943,-6.5943,0,-6.5337,-6.5403,-6.543,-6.5477,-6.5552,-6.5563,-6.5636,-6.5657,-6.5692,-6.5743,-6.5736,-6.5784,-6.5795,-6.5844,-6.5852,-6.5925,-6.5937,-6.5946,-6.5948,-6.5948,-6.5947,-6.5966,-6.596,-6.5947,-6.5946,-6.5946,-6.5945,0,-6.5431,-6.5452,-6.5536,-6.5582,-6.5595,-6.5648,-6.5686,-6.5732,-6.5748,-6.5813,-6.5829,-6.5854,-6.5912,-6.5927,-6.5995,-6.6001,-6.6088,-6.6082,-6.6075,-6.6075,-6.6127,-6.6122,-6.6291,-6.6315,-6.6171,-6.6172,-6.6173,0,-6.55,-6.5552,-6.5605,-6.564,-6.5666,-6.5722,-6.5757,-6.577,-6.5807,-6.5859,-6.5898,-6.5957,-6.6004,-6.6097,-6.612,-6.6173,-6.6169,-6.6225,-6.6177,-6.6176,-6.6171,-6.6169,-6.6174,-6.6234,-6.6235,-6.6237,-6.6238,0,-6.562,-6.5629,-6.5681,-6.5739,-6.5782,-6.5827,-6.5869,-6.5898,-6.5916,-6.5958,-6.6019,-6.6056,-6.6128,-6.6186,-6.624,-6.6262,-6.6254,-6.6253,-6.6268,-6.6269,-6.6263,-6.6268,-6.6101,-6.6249,-6.6248,-6.6247,-6.6246,-6.6246,-6.5705,-6.5751,-6.5797,-6.5856,-6.5891,-6.5932,-6.5978,-6.6002,-6.6053,-6.6115,-6.6119,-6.6185,-6.6226,-6.6298,-6.6325,-6.6376,-6.6359,-6.6381,-6.6386,-6.6392,-6.6397,-6.6255,-6.6386,-6.6385,-6.6385,-6.6385,-6.6385,0,-6.5826,-6.5856,-6.591,-6.5972,-6.6019,-6.601,-6.6057,-6.6097,-6.6156,-6.6197,-6.6245,-6.6316,-6.6372,-6.6402,-6.6458,-6.6493,-6.6491,-6.6508,-6.6505,-6.6511,-6.6408,-6.639,-6.6509,-6.6509,-6.6509,-6.6509,-6.6509,-6.6509,-6.5894,-6.5974,-6.5988,-6.6084,-6.6113,-6.618,-6.6209,-6.6246,-6.6279,-6.636,-6.6408,-6.6428,-6.6464,-6.6523,-6.6575,-6.6582,-6.6603,-6.6623,-6.6628,-6.6531,-6.6518,-6.6506,-6.6489,-6.6627,-6.6627,-6.6726,-6.6727,-6.6728]}]]